EW3309 Weather Reports


Display with metric or nautical units.
time (UTC)temp
F
wind
direction
speed
MPH
gust
MPH
rain 1hr
in
rain 24hr
in
rain mn
in
humidity
%
barometer
mb
20260905154524 61 5 0.0 0.0 0.00 0.00 0.00 88 1012.5
20260905153023 60 5 0.0 0.0 0.00 0.00 0.00 91 1012.4
20260905151519 59 5 0.0 0.0 0.00 0.00 0.00 91 1012.4
20260905150014 58 5 0.0 0.0 0.00 0.00 0.00 90 1012.4
20260905144512 58 5 0.0 0.0 0.00 0.00 0.00 89 1012.2
20260905143010 58 5 0.0 0.0 0.00 0.00 0.00 89 1012.1
20260905141510 58 5 0.0 0.0 0.00 0.00 0.00 89 1012.0
20260905140008 58 5 0.0 0.0 0.00 0.00 0.00 89 1011.9
20260905134513 58 5 0.0 0.0 0.00 0.00 0.00 89 1011.7
20260905133008 58 5 0.0 0.0 0.00 0.00 0.00 89 1011.6
20260905131511 58 5 0.0 0.0 0.00 0.00 0.00 89 1011.4
20260905130005 58 5 0.0 0.0 0.00 0.00 0.00 89 1011.3
20260905124505 58 5 0.0 0.0 0.00 0.00 0.00 88 1011.1
20260905123002 59 5 0.0 0.0 0.00 0.00 0.00 88 1011.0
20260905121604 59 5 0.0 0.0 0.00 0.00 0.00 88 1011.1
20260905120058 59 5 0.0 0.0 0.00 0.00 0.00 88 1011.1
20260905114607 59 5 0.0 0.0 0.00 0.00 0.00 88 1011.2
20260905113056 60 5 0.0 0.0 0.00 0.00 0.00 88 1011.2
20260905111624 60 5 0.0 0.0 0.00 0.00 0.00 88 1011.3
20260905104610 60 5 0.0 0.0 0.00 0.00 0.00 88 1011.4
20260905103052 60 5 0.0 0.0 0.00 0.00 0.00 87 1011.4
20260905101552 61 5 0.0 0.0 0.00 0.00 0.00 87 1011.5
20260905100049 61 5 0.0 0.0 0.00 0.00 0.00 87 1011.4
20260905094650 61 5 0.0 0.0 0.00 0.00 0.00 86 1011.4
20260905093049 61 5 0.0 0.0 0.00 0.00 0.00 86 1011.5
20260905091548 61 5 0.0 0.0 0.00 0.00 0.00 85 1011.4
20260905090043 61 5 0.0 0.0 0.00 0.00 0.00 84 1011.6
20260905084555 61 5 0.0 0.0 0.00 0.00 0.00 83 1011.8
20260905083040 61 5 0.0 0.0 0.00 0.00 0.00 82 1011.7
20260905081540 62 5 0.0 0.0 0.00 0.00 0.00 81 1012.0
20260905080035 62 5 0.0 0.0 0.00 0.00 0.00 81 1012.2
20260905074533 62 5 0.0 0.0 0.00 0.00 0.00 81 1012.3
20260905073031 62 5 0.0 0.0 0.00 0.00 0.00 80 1012.5
20260905071529 63 5 0.0 0.0 0.00 0.00 0.00 78 1012.6
20260905070026 63 5 0.0 0.0 0.00 0.00 0.00 77 1012.5
20260905064524 64 355 0.0 0.0 0.00 0.00 0.00 77 1012.4
20260905063024 64 355 0.0 0.0 0.00 0.00 0.00 77 1012.4
20260905061530 64 355 0.0 0.0 0.00 0.00 0.00 77 1012.3
20260905060046 65 355 0.0 0.0 0.00 0.00 0.00 75 1012.2
20260905054524 65 355 0.0 0.0 0.00 0.00 0.00 75 1012.2
20260905053022 66 355 0.0 0.0 0.00 0.00 0.00 75 1012.2
20260905051532 66 355 0.0 0.0 0.00 0.00 0.00 74 1012.1
20260905050021 67 355 0.0 0.0 0.00 0.00 0.00 74 1012.1
20260905044521 67 355 0.0 0.0 0.00 0.00 0.00 73 1011.9
20260905043022 68 329 0.0 0.0 0.00 0.00 0.00 72 1011.8
20260905041519 68 329 0.0 0.0 0.00 0.00 0.00 73 1011.7
20260905040021 69 329 0.0 0.0 0.00 0.00 0.00 73 1011.6
20260905034517 69 329 0.0 0.0 0.00 0.00 0.00 73 1011.4
20260905033017 70 330 0.0 0.0 0.00 0.00 0.00 72 1011.3
20260905031518 71 333 0.0 0.0 0.00 0.00 0.00 70 1011.0
20260905030015 72 316 0.0 0.0 0.00 0.00 0.00 68 1010.9
20260905024535 73 337 0.0 0.0 0.00 0.00 0.00 66 1010.7
20260905023020 74 267 0.0 0.0 0.00 0.00 0.00 64 1010.7
20260905021514 75 287 0.0 0.0 0.00 0.00 0.00 60 1010.7
20260905020013 77 291 0.0 0.0 0.00 0.00 0.00 55 1010.7
20260905014512 80 284 0.0 0.0 0.00 0.00 0.00 49 1010.4
20260905013012 82 245 0.0 0.0 0.00 0.00 0.00 44 1010.4
20260905011511 83 292 0.0 0.0 0.00 0.00 0.00 42 1010.4
20260905010011 84 296 0.0 0.0 0.00 0.00 0.00 41 1010.3
20260905004511 84 240 0.0 0.0 0.00 0.00 0.00 41 1010.3
20260905003013 84 235 0.0 0.0 0.00 0.00 0.00 39 1010.4
20260905001509 85 277 0.0 0.0 0.00 0.00 0.00 37 1010.5
20260905000008 86 277 0.0 0.0 0.00 0.00 0.00 35 1010.5
20260904234507 86 285 0.0 0.0 0.00 0.00 0.00 34 1010.5
20260904233008 87 255 0.0 0.0 0.00 0.00 0.00 32 1010.4
20260904231505 87 244 0.0 0.0 0.00 0.00 0.00 33 1010.5
20260904230004 87 216 0.0 0.0 0.00 0.00 0.00 34 1010.6
20260904224502 87 210 0.0 0.0 0.00 0.00 0.00 33 1010.7
20260904223110 87 221 0.0 0.0 0.00 0.00 0.00 34 1010.8
20260904221624 87 227 0.0 0.0 0.00 0.00 0.00 35 1010.9
20260904220056 87 254 0.0 0.0 0.00 0.00 0.00 36 1011.1
20260904214554 87 208 0.0 0.0 0.00 0.00 0.00 37 1011.0
20260904213057 87 215 0.0 0.0 0.00 0.00 0.00 37 1011.0
20260904211549 87 200 0.0 0.0 0.00 0.00 0.00 38 1011.2
20260904210048 87 186 0.0 0.0 0.00 0.00 0.00 37 1011.0
20260904204545 88 225 0.0 0.0 0.00 0.00 0.00 37 1011.1
20260904203045 88 215 0.0 0.0 0.00 0.00 0.00 36 1011.1
20260904201544 87 257 0.0 0.0 0.00 0.00 0.00 38 1011.1
20260904200058 87 227 0.0 0.0 0.00 0.00 0.00 38 1011.1
20260904194538 87 188 0.0 0.0 0.00 0.00 0.00 36 1011.4
20260904193040 86 193 0.0 0.0 0.00 0.00 0.00 38 1011.5
20260904191531 84 71 0.0 0.0 0.00 0.00 0.00 38 1011.7
20260904190029 84 271 0.0 0.0 0.00 0.00 0.00 42 1011.9
20260904184525 83 218 0.0 0.0 0.00 0.00 0.00 44 1012.2
20260904183022 82 192 0.0 0.0 0.00 0.00 0.00 48 1012.2
20260904181517 80 171 0.0 0.0 0.00 0.00 0.00 51 1012.3
20260904180013 78 204 0.0 0.0 0.00 0.00 0.00 55 1012.3
20260904174508 75 206 0.0 0.0 0.00 0.00 0.00 64 1012.4
20260904173004 72 163 0.0 0.0 0.00 0.00 0.00 68 1012.5
20260904171620 71 144 0.0 0.0 0.00 0.00 0.00 73 1012.6
20260904170056 69 200 0.0 0.0 0.00 0.00 0.00 75 1012.7
20260904164551 68 218 0.0 0.0 0.00 0.00 0.00 77 1012.6
20260904163054 67 245 0.0 0.0 0.00 0.00 0.00 78 1012.5
20260904161555 67 238 0.0 0.0 0.00 0.00 0.00 79 1012.4
20260904160043 66 175 0.0 0.0 0.00 0.00 0.00 81 1012.3